Weather in Puri

India     19°48′23″N   85°49′59″E
temp.,
°C
wind,
m/s
gust,
m/s
humid.,
%
clouds,
%
prec.,
mm/h
press.,
hPa
HPBL,
m
11 april, sun
sun1123:30+27ssw79827 0.0 1011426
02:30+26ssw68790 0.0 1010441
05:30+26sw57780 0.0 1011409
08:30+28sw56660 0.0 1013574
11:30+29ssw66630 0.0 1013550
14:30+29s66640 0.0 1010475
17:30+28s68770 0.0 1009349
20:30+27ssw710850 0.0 1012420
12 april, mon
mon1223:30+27sw68885 0.0 1012499
02:30+27sw69855 0.0 1010468
05:30+27sw688523 0.0 1011393
08:30+28sw66726 0.0 1013466
11:30+29ssw63692 0.0 1012557
14:30+29s87735 0.0 1009409
17:30+28sw68785 0.0 1009499
20:30+27ssw710839 0.0 1011324
13 april, tue
tue1323:30+27ssw588349 0.0 1011402
02:30+27s578622 0.0 1010370
05:30+27ssw69865 0.0 1010421
08:30+28ssw79785 0.0 1012615
11:30+29ssw77745 0.0 1011584
14:30+29s88720 0.0 1008489
17:30+28s697925 0.0 1008402
20:30+27ssw588678 0.0 1011464
14 april, wed
wed1423:30+27ssw7108919 0.0 1010475
02:30+27ssw69884 0.0 1009539
05:30+27ssw912880 0.0 1009565
08:30+28sw911815 0.0 1011587
11:30+29ssw88750 0.0 1010548
14:30+29s99783 0.0 1007523
17:30+28ssw10138496 0.0 1006595
20:30+28ssw10158299 0.0 1008426
15 april, thu
thu1523:30+28ssw111585100 0.0 1008560
02:30+27sw11168894 0.0 1006518
05:30+27sw81189100 0.0 1007426
08:30+28sw81082100 0.0 1009433
11:30+30sw6673100 0.0 1008479
14:30+29s1097757 0.0 1005470
17:30+29s567567 0.1 1006265
20:30+28s91283100 0.0 1006208